Torna al catalogo

CONNECTA IOT-14

AttivoComunicazioniSSO
NORAD 67401·PAYLOAD·🇹🇷 Turkey

Lanciato Jan 11, 2026 da Vandenberg Space Force Base

Loading…

Prossimi Passaggi (prossime 24 ore)

TLE

AggiornatoSource: Space-Track

Epoca: Sep 14, 2026, 05:08 UTC

1 67401U 26004AQ  26257.21450869  .00006556  00000-0  31404-3 0  9994
2 67401  97.4567 255.0254 0010541  40.2062 319.9950 15.19224615 37277

Traccia CONNECTA IOT-14 in tempo reale con AllMySat

Download on the App Store